Other Public Products
Issued by NWS Grand Forks, ND

Home | Current Version | Previous Version | Graphics & Text | Print | Product List | Glossary Off
Versions: 1 2 3 4 5 6 7 8 9 10 11 12 13 14 15 16 17 18 19 20 21 22 23 24 25 26 27 28 29 30 31 32 33 34 35 36 37 38 39 40 41 42 43 44 45 46 47 48 49 50

000
FPUS83 KFGF 172210
OPUFGF
PRAIRIE TO PINES WEATHER ROUNDUP
NATIONAL WEATHER SERVICE EASTERN NORTH DAKOTA/GRAND FORKS ND
500 PM CDT WED SEP 17 2014

 **SATELLITE DATA USED TO AUGMENT SKY COVER AT AUTOMATED STATIONS**
 *****  WEATHER ACROSS EASTERN NORTH DAKOTA  *****

CITY           SKY/WX    TMP DP  RH WIND       PRES   REMARKS
GRAND FORKS    SUNNY     65  48  54 NE9       30.01F
GRAND FORKS AF SUNNY     63  50  63 NE12      30.02F
GRAND CITY NWS   N/A     64 N/A N/A N6          N/A
BUXTON         NOT AVBL
DEVILS LAKE    SUNNY     61  46  59 E9        30.01F
FARGO          SUNNY     74  48  39 N10       29.97R
WAHPETON ARPT  CLEAR     73  37  27 NE5       29.96R
$$

 *****  WEATHER ACROSS CENTRAL AND WESTERN NORTH DAKOTA  *****

CITY           SKY/WX    TMP DP  RH WIND       PRES   REMARKS
JAMESTOWN      SUNNY     72  50  45 NE9       29.97S
BISMARCK       MOSUNNY   76  48  37 E7        29.96F
MINOT          SUNNY     68  49  50 E8        29.98F
MINOT AFB      SUNNY     67  51  56 E13       29.98F
GARRISON         N/A     74  45  35 E8        29.96F
WILLISTON      SUNNY     77  41  27 S13       29.93S
DICKINSON      MOSUNNY   71  47  42 SE13      29.93F
HETTINGER      CLOUDY    65  51  60 SE8       29.96F
$$

 *****  OTHER OBSERVATIONS NORTHEAST NORTH DAKOTA  *****

CITY           SKY/WX    TMP DP  RH WIND       PRES   REMARKS
WALHALLA         N/A     55  43  62 N13       30.07S
LANGDON        FAIR      57  41  54 NE13      30.05S
CAVALIER       FAIR      57  43  58 NE9       30.06S
GRAFTON        FAIR      59  46  63 N9        30.04S
CANDO          FAIR      63  45  51 E12       30.04S
FORT TOTTEN      N/A     63  50  62 NE6       29.95S
ROLLA          FAIR      59  41  51 E10       30.05F
RUGBY          FAIR      64  46  52 E12       30.01F
 ***** THE ABOVE OBSERVATIONS ARE NON NWS ARE NOT QUALITY
        CONTROLLED AND MAY MIS-REPORT RAIN FOR SNOW...
$$

 *****  OTHER OBSERVATIONS SOUTHEAST NORTH DAKOTA *****

CITY           SKY/WX    TMP DP  RH WIND       PRES   REMARKS
COOPERSTOWN    NOT AVBL
VALLEY CITY    FAIR      68  50  52 NE10      29.99R
OAKES            N/A     73  46  38 NE8       29.97R
GWINNER        CLEAR     73  46  38 NE12      29.97S
BUFFALO        NOT AVBL
WYNDMERE       NOT AVBL
 ***** THE ABOVE OBSERVATIONS ARE NON NWS ARE NOT QUALITY
       CONTROLLED AND MAY MIS-REPORT RAIN FOR SNOW...
$$

  *****  WEATHER ACROSS NORTHERN MINNESOTA  *****

CITY           SKY/WX    TMP DP  RH WIND       PRES   REMARKS
FLAG ISLAND    CLOUDY    46  37  71 NE8       30.09S
WARROAD        CLOUDY    48  43  81 NE13      30.10R
ROSEAU         MOSUNNY   54  43  66 NE10      30.08S
HALLOCK        SUNNY     61  45  55 NE10      30.04S
THF RVR FALLS  SUNNY     63  45  51 NE9G16    30.02S
HALSTAD          N/A     73  45  36 N8          N/A
FOSSTON        SUNNY     68  52  56 NE7       30.01R
BAUDETTE       MOSUNNY   53  41  63 NE10      30.07S
WASKISH        SUNNY     61  46  59 N9        30.03R
CROOKSTON      SUNNY     64  48  55 NE8       30.01S
$$
  *****  WEATHER ACROSS CENTRAL AND WEST MINNESOTA  *****

CITY           SKY/WX    TMP DP  RH WIND       PRES   REMARKS
BEMIDJI        SUNNY     64  50  60 NE9       30.00S
PARK RAPIDS    SUNNY     73  45  36 N9        29.96R
WADENA         SUNNY     72  46  40 CALM      29.96S
DETROIT LAKES  SUNNY     72  43  35 N3        29.98S
MOORHEAD       SUNNY     73  45  35 N9        29.97S
FERGUS FALLS   SUNNY     73  43  33 E7        29.95S
ELBOW LAKE     FAIR      73  51  46 E6        29.95S
MORRIS MN      MOSUNNY   75  52  43 NE3       29.94R
STAPLES        MOSUNNY   72  45  37 NE3       29.96S
WHEATON        MOSUNNY   72  50  46 NE8       29.96S
$$
  *****  WEATHER ELSEWHERE ACROSS MINNESOTA  *****

CITY           SKY/WX    TMP DP  RH WIND       PRES   REMARKS
DULUTH         CLOUDY    47  41  80 E20       30.03R
INTRNTL FALLS  CLOUDY    51  40  65 N9        30.08R
ELY            CLOUDY    48  43  81 E7        30.06R
CLOQUET        CLOUDY    48  43  81 E16G22    30.02R
BRAINERD       SUNNY     70  46  42 N6        29.97R
HIBBING        MOSUNNY   67  48  50 NE10      30.00R
ALEXANDRIA     SUNNY     72  52  49 CALM      29.97S
SAINT CLOUD    MOSUNNY   75  53  46 N3        29.95R
MINNEAPOLIS    MOSUNNY   73  51  46 NE5       29.94S
$$

  *****  WEATHER ACROSS SOUTH DAKOTA  *****

CITY           SKY/WX    TMP DP  RH WIND       PRES   REMARKS
SIOUX FALLS    PTSUNNY   79  54  41 CALM      29.92S
BROOKINGS      NOT AVBL
WATERTOWN      MOSUNNY   73  51  46 NE8       29.95S
HURON          MOSUNNY   75  47  36 N7        29.92S
SISSETON         N/A     75  52  44 NE8       29.94S
ABERDEEN       SUNNY     72  48  42 E12       29.95S
MITCHELL       MOSUNNY   78  55  44 VRB3      29.92S
PIERRE         SUNNY     80  53  39 SE13      29.90S
MOBRIDGE       PTSUNNY   73  47  39 E12       29.93R
RAPID CITY     SUNNY     79  49  34 SE10      29.92F
$$

  *****  SOME WEATHER IN NEARBY STATES *****

CITY           SKY/WX    TMP DP  RH WIND       PRES   REMARKS
GLASGOW MT     SUNNY     82  46  28 SE14      29.84F
GREAT FALLS MT CLOUDY    81  51  35 SW3       29.82F
CHEYENNE WY    MOSUNNY   78  41  26 NE15G25   30.09S
SCOTTSBLUFF NE CLOUDY    89  43  20 NW10      29.95S
OMAHA NE       MOSUNNY   79  59  50 E6        29.89S
DES MOINES IA  MOSUNNY   75  57  53 VRB5      29.92S
DAVENPORT IA   SUNNY     69  48  47 CALM      29.96F
CHICAGO IL     MOSUNNY   70  44  39 CALM      29.97F
EAU CLAIRE WI  MOSUNNY   70  50  49 CALM      29.95S
LA CROSSE WI   CLOUDY    70  52  52 SE6       29.96R
$$

  *****  SOME NATIONAL WEATHER *****

CITY           SKY/WX    TMP DP  RH WIND       PRES   REMARKS
LA GUARDIA NY  MOSUNNY   72  43  35 NW9       29.96R
RALEIGH NC     MOSUNNY   76  63  64 NE9       29.92F
ATLANTA GA     PTSUNNY   84  59  42 NW14      29.90S
NEW ORLEANS LA PTSUNNY   87  69  54 CALM      29.90F HX  91
OKLAHOMA CITY  CLOUDY    91  66  43 W8        29.86F HX  93
ALBUQUERQUE NM CLOUDY    68  59  73 N8        30.13F
SALT LAKE CITY MOSUNNY   94  33  11 NW10      29.90F
LOS ANGELES CA MOSUNNY   81  57  43 W12       29.74S
BOISE ID       MOSUNNY   91  38  15 NW6       29.78F
SEATTLE WA     CLOUDY    72  56  57 N8        29.74F
$$

*** WEATHER ACROSS MANITOBA...SASKATCHEWAN AND ONTARIO ***
                ***ONTARIO***

CITY           SKY/WX    TMP DP  RH WIND       PRES   REMARKS
GERALDTON      PTSUNNY   43  28  56 NW6       30.09R
THUNDER BAY    NOT AVBL
SIOUX LOOKOUT  PTSUNNY   43  32  65 VRB3      30.11F
TORONTO        PTSUNNY   66  45  45 W10       29.94S
BIG TROUT LK   CLOUDY    36  21  55 NW8       30.15R
PICKLE LAKE    MOSUNNY   45  21  39 N6        30.09S
DRYDEN         CLOUDY    45  34  65 E7        30.11S
KENORA         PTSUNNY   46  36  66 VRB6      30.11S
$$
                *** MANITOBA***

CITY           SKY/WX    TMP DP  RH WIND       PRES   REMARKS
BRANDON        PTSUNNY   46  39  76 E14       30.09F
DAUPHIN        CLOUDY    45  39  81 E9        30.11F
ISLAND LAKE    MOSUNNY   45  25  45 NW3       30.16S
PILOT MOUND      N/A     55  43  62 NE10        N/A
THE PAS        PTSUNNY   46  32  57 S10G18    30.09F
THOMPSON       MOSUNNY   45  25  45 S7        30.12F
WINNIPEG       CLOUDY    48  39  71 NE7       30.11F
LYNN LAKE      SUNNY     46  23  39 S9G17     30.02F
CHURCHILL      CLOUDY    36  25  64 NW8       30.14F
GILLAM         MOSUNNY   41  23  48 NW2       30.15F
$$
                ***SASKATCHEWAN***

CITY           SKY/WX    TMP DP  RH WIND       PRES   REMARKS
ESTEVAN        MOSUNNY   64  50  59 E17       29.98F
KINDERSLEY     MOSUNNY   75  48  38 E12G20    29.81F
LLOYDMINSTER   PTSUNNY   68  46  45 SE16      29.79F
PRINCE ALBERT  PTSUNNY   54  45  71 SE9       29.95F
REGINA         MOSUNNY   68  48  49 SE16G22   29.92F
YORKTON        NOT AVBL


USA.gov is the U.S. government's official web portal to all federal, state and local government web resources and services.